Home > Time Zones > World Clock > Weather > Spain > Ceuta > Past weeks

Flag for Spain Weather past 2 weeks in Ceuta, Ceuta, Spain

Now
68 °F

Passing clouds.


Feels Like: 68 °F
Forecast: 66 / 75 °F
Wind: 12 mph from West

Location: Gibraltar Airport

Current Time: Sep 4, 2015 at 11:59:24 PM

Latest Report: Sep 4, 2015 at 10:50 PM


Visibility: N/A

Pressure: 30.01 "Hg

Humidity: 73%

Dew point: 59 °F

Location of CeutaLocation

Historic Weather in Ceuta — Graph

°F

Ceuta temperature yesterday

Maximum temperature yesterday: 75 °F (at 1:50 PM)
Minimum temperature yesterday: 66 °F (at 9:50 PM)
Average temperature yesterday: 70 °F

Past Weeks' High & Low Weather Summary

 TemperatureHumidityPressure
High82 °F (Aug 22, 5:50 PM)100% (Aug 21, 3:50 AM)30.12 "Hg (Aug 21, 3:50 AM)
Low66 °F (Sep 3, 9:50 PM)30% (Aug 23, 3:50 PM)29.92 "Hg (Aug 22, 8:50 PM)
Average73 °F76%30.01 "Hg
* Reported Aug 20 9:50 PM — Sep 4 9:50 PM, Ceuta, Weather by CustomWeather, © 2015

Note: Actual official high and low records may vary slightly from our data, if they occured in-between our weather recording intervals... More about our weather records

Advertising

Ceuta weather history for previous 24 hours

 ConditionsComfort  
Time TempWeatherWind HumidityBarometerVisibility
9:50 PM
Fri, Sep 4
68 °FPassing clouds.12 mph73%30.01 "HgN/A
8:50 PM70 °FPartly sunny.15 mph69%29.98 "HgN/A
7:50 PM70 °FPartly sunny.13 mph64%29.98 "HgN/A
6:50 PM73 °FPartly sunny.15 mph57%29.95 "HgN/A
5:50 PM73 °FPartly sunny.13 mph57%29.98 "HgN/A
4:50 PM75 °FPartly sunny.13 mph47%29.98 "HgN/A
3:50 PM75 °FPartly sunny.12 mph47%30.01 "HgN/A
2:50 PM75 °FScattered clouds.15 mph47%30.01 "HgN/A
1:50 PM73 °FScattered clouds.17 mph50%30.01 "HgN/A
12:50 PM73 °FBroken clouds.16 mph53%30.04 "HgN/A
11:50 AM72 °FPartly sunny.15 mph61%30.04 "HgN/A
10:50 AM72 °FBroken clouds.12 mph61%30.01 "HgN/A
9:50 AM68 °FPartly sunny.10 mph73%30.01 "HgN/A
8:50 AM68 °FPassing clouds.9 mph73%30.01 "HgN/A
7:50 AM68 °FPassing clouds.9 mph73%29.98 "HgN/A
6:50 AM66 °FPassing clouds.10 mph78%29.98 "HgN/A
5:50 AM66 °FClear.14 mph78%29.95 "HgN/A
4:50 AM68 °FClear.12 mph73%29.95 "HgN/A
3:50 AM68 °FClear.12 mph69%29.95 "HgN/A
2:50 AM68 °FClear.9 mph73%29.98 "HgN/A
1:50 AM66 °FClear.13 mph78%29.98 "HgN/A
12:50 AM68 °FClear.13 mph69%29.98 "HgN/A
11:50 PM
Thu, Sep 3
66 °FClear.16 mph78%30.01 "HgN/A
Weather by CustomWeather, © 2015

See weather overviewHow to use our weather pages